SL-8 DEB, 3749

Orbit data source: Space-Track

SL-8 DEB, 3749 is space debris in LEO originally from a launch on Mon, 15 Mar 1965 UTC launched from the Tyuratam Missile And Space Complex (TTMTR). Debris objects in space refer to the collection of defunct objects orbiting the Earth. Examples of debris include non-operational satellites, rocket bodies, and fragments generated from explosions, collisions, or faulty payload assembly.

Loading next visibility...
Identifier
3749, 1965-020EU
Orbit
LEO
Country
Flag of CISCIS
Related business
Manufacturer
Unknown
Mission
Spacecraft
Bus & Motor
Unknown
Mass
Unknown
Launch date (UTC)
1965-03-15 (61 years ago)
Launch vehicle
Unknown
Launch site
Tyuratam Missile And Space Complex (TTMTR)
Object type
Payload
Rocket body
Debris
Shape & HBR
Unknown shape, 0.1 m
Radar Cross Section
Small (<0.1 m²)

Expand to show TLE details & history
Last TLE update: 16 hours ago

TLE from 16 hours ago
0 SL-8 DEB
1 03749U 65020EU  26072.55734234  .00004457  00000-0  15600-2 0  9990
2 03749  56.1124 133.6907 0443575 272.9434  82.0879 13.93088460787336
Epoch: 2026-03-13T13:22Z
TLE epoch observation values (Epoch: 2026-03-13T13:22:34.378Z)
Latitude
0.00003°
Longitude
121.85631°
Altitude
888.615 km
Speed
7.424 km/s
True Right ascension
08h 54m 45s
True Declination
0° 00' 00"
Sunlit
Object was in full shadow at epoch
Visualization orbit readout
Latitude
Unknown
Longitude
Unknown
Altitude
Unknown
Speed
Unknown
Apparent Right ascension
Unknown
Apparent Declination
Unknown
Sunlit
N/A
Visualization observer readout
Local Sidereal Time
10:02:27
Azimuth
Unknown
Elevation
Unknown
Doppler factor
Unknown
Orbital elements
Apogee altitude
1,241.25 km
Perigee altitude
594.006 km
Semi-major axis
7,295.765 km
Eccentricity
0.04436
Inclination
56.1124°
RAAN
133.6907°
Arg. of periapsis
272.9434°
True anomaly
87.1546°
Mean anomaly
82.0879°
Eccentric anomaly
84.61819°
Mean motion
3.48287 °/min
Orbital period
103.36 mins
BSTAR
0.00156
Loading maneuver chart data...
Computing Atmospheric mass density...
Loading historical data...
Loading historical data...
Loading historical data...
Loading historical data...
Loading historical data...
Loading historical data...
Loading historical data...

Documentation

Showing up to 5 results
|